Voltar ao catálogo

STARLINK-3553

AtivoComunicaçõesVLEO
NORAD 51866·PAYLOAD·🇺🇸 United States

Lançado Mar 3, 2022 de Cape Canaveral Space Force Station

Loading…

Próximas Passagens (próximas 24 horas)

TLE

AtualizadoSource: CelesTrak SupGP

Época: Sep 15, 2026, 01:22 UTC

1 51866C 22022Q   26258.05743056 -.00029624  00000+0 -89886-3 0  2581
2 51866  53.1580 229.4114 0001343  92.2618  19.4046 15.33565427    18

Acompanhe STARLINK-3553 em tempo real com AllMySat

Download on the App Store